QPF
0.02 0.03 0.02 0.01 0.01 0.01 0.01 0.01 0.00 0.00 0.00 0.00 0.00 0.00 0.00 0.00 0.00 0.00 0.00 0.00 0.00 0.00 0.00 0.00 0.00 0.00 0.00 0.00 0.01 0.01 0.01 0.00 0.01 0.01 0.01 0.01 0.01 0.01 0.02 0.01 0.01 0.02 0.03 0.03
0.02 0.02 0.01 0.00 0.01 0.01 0.01 0.00 0.00 0.00 0.01 0.00 0.00 0.00 0.00 0.00 0.00 0.00 0.00 0.00 0.00 0.00 0.00 0.00 0.00 0.01 0.01 0.00 0.00 0.01 0.01 0.01 0.01 0.01 0.00 0.00 0.00 0.01 0.01 0.01 0.01 0.01 0.02 0.03
0.01 0.01 0.01 0.01 0.01 0.01 0.01 0.00 0.01 0.01 0.01 0.01 0.01 0.01 0.00 0.00 0.00 0.00 0.00 0.00 0.00 0.00 0.00 0.00 0.00 0.01 0.01 0.01 0.00 0.00 0.00 0.00 0.00 0.00 0.00 0.00 0.00 0.00 0.00 0.00 0.01 0.01 0.02 0.04
0.00 0.00 0.00 0.01 0.01 0.01 0.01 0.01 0.01 0.01 0.01 0.01 0.01 0.01 0.00 0.00 0.00 0.00 0.00 0.00 0.00 0.00 0.00 0.01 0.01 0.01 0.01 0.01 0.01 0.01 0.00 0.00 0.00 0.00 0.00 0.00 0.00 0.00 0.00 0.00 0.00 0.01 0.01 0.03
0.00 0.00 0.00 0.00 0.00 0.00 0.01 0.01 0.00 0.01 0.01 0.01 0.00 0.00 0.00 0.00 0.00 0.00 0.00 0.00 0.00 0.00 0.00 0.00 0.00 0.00 0.00 0.00 0.01 0.01 0.01 0.00 0.00 0.00 0.00 0.00 0.00 0.00 0.00 0.00 0.00 0.01 0.01 0.01
0.00 0.00 0.00 0.00 0.00 0.00 0.00 0.00 0.00 0.00 0.01 0.01 0.00 0.00 0.00 0.00 0.00 0.00 0.00 0.00 0.00 0.00 0.00 0.00 0.00 0.00 0.00 0.00 0.00 0.00 0.01 0.01 0.01 0.01 0.00 0.00 0.00 0.00 0.01 0.01 0.01 0.01 0.01 0.01
0.00 0.00 0.00 0.01 0.01 0.01 0.01 0.01 0.00 0.00 0.00 0.00 0.00 0.00 0.00 0.00 0.00 0.00 0.00 0.00 0.00 0.00 0.00 0.00 0.00 0.00 0.00 0.01 0.01 0.00 0.00 0.01 0.01 0.01 0.00 0.00 0.00 0.00 0.00 0.02 0.01 0.01 0.01 0.01
0.00 0.00 0.00 0.00 0.01 0.01 0.01 0.00 0.00 0.00 0.00 0.00 0.00 0.00 0.00 0.00 0.00 0.00 0.00 0.00 0.00 0.00 0.00 0.00 0.00 0.01 0.01 0.01 0.01 0.01 0.01 0.01 0.01 0.01 0.01 0.01 0.00 0.00 0.01 0.01 0.01 0.01 0.01 0.02
0.00 0.00 0.00 0.00 0.00 0.00 0.01 0.00 0.00 0.01 0.01 0.00 0.00 0.00 0.00 0.00 0.00 0.00 0.00 0.00 0.00 0.00 0.00 0.00 0.00 0.00 0.01 0.01 0.01 0.02 0.01 0.01 0.01 0.01 0.01 0.01 0.01 0.01 0.01 0.01 0.02 0.04 0.03 0.02
0.00 0.00 0.00 0.00 0.00 0.00 0.00 0.01 0.01 0.01 0.01 0.00 0.00 0.00 0.00 0.00 0.00 0.01 0.01 0.00 0.00 0.00 0.00 0.00 0.00 0.00 0.00 0.00 0.01 0.01 0.01 0.01 0.01 0.01 0.01 0.01 0.01 0.01 0.01 0.01 0.02 0.05 0.04 0.02
0.00 0.01 0.00 0.00 0.00 0.00 0.00 0.00 0.01 0.01 0.01 0.01 0.01 0.00 0.00 0.00 0.00 0.00 0.00 0.00 0.00 0.00 0.00 0.00 0.00 0.00 0.01 0.01 0.01 0.01 0.01 0.01 0.01 0.01 0.01 0.01 0.01 0.01 0.00 0.01 0.01 0.02 0.02 0.02
0.01 0.01 0.00 0.00 0.00 0.00 0.00 0.00 0.01 0.03 0.02 0.02 0.01 0.00 0.00 0.00 0.00 0.00 0.00 0.00 0.00 0.00 0.00 0.00 0.00 0.00 0.01 0.01 0.01 0.01 0.01 0.01 0.01 0.01 0.01 0.01 0.02 0.01 0.01 0.01 0.01 0.01 0.01 0.01
0.01 0.02 0.02 0.00 0.00 0.00 0.00 0.00 0.01 0.02 0.02 0.02 0.02 0.01 0.01 0.01 0.00 0.00 0.01 0.01 0.01 0.02 0.01 0.01 0.01 0.01 0.01 0.01 0.01 0.01 0.01 0.01 0.01 0.01 0.02 0.02 0.03 0.03 0.02 0.01 0.01 0.01 0.01 0.01
0.02 0.02 0.01 0.01 0.00 0.00 0.00 0.00 0.00 0.01 0.02 0.01 0.00 0.00 0.01 0.01 0.01 0.01 0.01 0.02 0.02 0.02 0.02 0.02 0.02 0.01 0.01 0.01 0.01 0.01 0.01 0.01 0.01 0.01 0.02 0.02 0.03 0.03 0.03 0.02 0.02 0.01 0.01 0.01
0.01 0.01 0.00 0.00 0.00 0.00 0.00 0.00 0.00 0.00 0.01 0.01 0.00 0.00 0.00 0.00 0.00 0.01 0.01 0.01 0.01 0.01 0.01 0.01 0.01 0.01 0.00 0.00 0.00 0.01 0.01 0.01 0.01 0.01 0.02 0.02 0.02 0.03 0.03 0.03 0.03 0.02 0.01 0.01
0.00 0.01 0.01 0.00 0.00 0.00 0.00 0.00 0.00 0.00 0.00 0.00 0.00 0.00 0.00 0.00 0.00 0.00 0.00 0.00 0.00 0.00 0.00 0.00 0.00 0.00 0.00 0.00 0.01 0.01 0.01 0.01 0.01 0.01 0.02 0.02 0.02 0.03 0.04 0.04 0.04 0.03 0.01 0.01
0.00 0.01 0.02 0.01 0.00 0.00 0.00 0.00 0.00 0.00 0.00 0.00 0.00 0.00 0.00 0.00 0.00 0.00 0.00 0.00 0.00 0.00 0.00 0.00 0.00 0.00 0.00 0.00 0.00 0.00 0.00 0.01 0.01 0.01 0.02 0.02 0.02 0.03 0.03 0.03 0.04 0.03 0.02 0.01
0.00 0.01 0.02 0.02 0.01 0.01 0.00 0.00 0.00 0.00 0.00 0.00 0.00 0.00 0.00 0.00 0.00 0.00 0.00 0.00 0.00 0.00 0.00 0.00 0.00 0.00 0.00 0.00 0.00 0.00 0.00 0.00 0.01 0.01 0.02 0.02 0.02 0.02 0.02 0.03 0.03 0.03 0.02 0.02
0.00 0.01 0.03 0.03 0.02 0.00 0.00 0.00 0.00 0.00 0.00 0.00 0.00 0.00 0.00 0.00 0.00 0.00 0.00 0.00 0.00 0.00 0.00 0.00 0.00 0.00 0.00 0.00 0.00 0.00 0.00 0.00 0.01 0.01 0.02 0.02 0.02 0.02 0.03 0.02 0.02 0.02 0.02 0.02
0.00 0.01 0.02 0.03 0.02 0.00 0.00 0.00 0.00 0.00 0.00 0.00 0.00 0.00 0.00 0.00 0.00 0.00 0.00 0.00 0.00 0.00 0.00 0.00 0.00 0.00 0.00 0.00 0.00 0.00 0.00 0.00 0.00 0.01 0.01 0.02 0.02 0.03 0.03 0.02 0.02 0.02 0.02 0.02
0.01 0.02 0.03 0.02 0.02 0.01 0.00 0.00 0.00 0.01 0.01 0.00 0.00 0.00 0.00 0.00 0.00 0.00 0.00 0.00 0.00 0.00 0.00 0.00 0.00 0.00 0.00 0.00 0.00 0.00 0.01 0.00 0.00 0.01 0.01 0.01 0.02 0.03 0.02 0.02 0.02 0.01 0.02 0.02
0.01 0.01 0.01 0.01 0.02 0.01 0.00 0.00 0.01 0.01 0.01 0.01 0.01 0.01 0.00 0.00 0.00 0.00 0.00 0.00 0.00 0.00 0.00 0.00 0.00 0.00 0.00 0.00 0.00 0.00 0.01 0.01 0.01 0.00 0.01 0.01 0.02 0.02 0.02 0.02 0.02 0.02 0.02 0.02
0.00 0.00 0.00 0.01 0.01 0.00 0.00 0.00 0.00 0.00 0.01 0.01 0.01 0.00 0.00 0.00 0.00 0.00 0.00 0.00 0.00 0.00 0.00 0.00 0.00 0.00 0.00 0.00 0.00 0.00 0.01 0.01 0.01 0.01 0.01 0.01 0.01 0.02 0.02 0.01 0.02 0.02 0.02 0.02
0.00 0.00 0.00 0.00 0.00 0.00 0.00 0.00 0.00 0.00 0.00 0.00 0.00 0.00 0.00 0.00 0.00 0.00 0.00 0.00 0.00 0.00 0.00 0.00 0.00 0.00 0.00 0.00 0.00 0.00 0.00 0.01 0.01 0.01 0.01 0.01 0.01 0.01 0.01 0.01 0.02 0.01 0.01 0.01
0.00 0.00 0.01 0.00 0.00 0.00 0.00 0.00 0.00 0.00 0.00 0.00 0.00 0.00 0.00 0.00 0.00 0.00 0.00 0.00 0.00 0.00 0.00 0.00 0.00 0.00 0.00 0.00 0.00 0.00 0.00 0.01 0.02 0.01 0.01 0.01 0.01 0.01 0.01 0.01 0.01 0.01 0.01 0.01
0.00 0.00 0.01 0.00 0.00 0.00 0.00 0.00 0.00 0.00 0.00 0.00 0.00 0.00 0.00 0.00 0.00 0.00 0.00 0.00 0.00 0.00 0.00 0.00 0.00 0.00 0.00 0.00 0.00 0.00 0.00 0.01 0.02 0.02 0.01 0.01 0.01 0.01 0.01 0.01 0.01 0.01 0.01 0.01
MSLP
1018.21 1018.37 1018.57 1018.81 1019.06 1019.29 1019.49 1019.61 1019.62 1019.49 1019.22 1018.82 1018.32 1017.76 1017.20 1016.68 1016.27 1015.99 1015.87 1015.89 1016.07 1016.36 1016.74 1017.19 1017.66 1018.14 1018.59 1018.99 1019.32 1019.56 1019.70 1019.74 1019.69 1019.56 1019.36 1019.15 1018.93 1018.72 1018.54 1018.38 1018.23 1018.07 1017.88 1017.65
1018.88 1019.01 1019.16 1019.34 1019.52 1019.68 1019.80 1019.84 1019.75 1019.51 1019.12 1018.59 1017.95 1017.25 1016.54 1015.90 1015.38 1015.02 1014.85 1014.86 1015.04 1015.37 1015.81 1016.32 1016.86 1017.41 1017.94 1018.43 1018.85 1019.19 1019.43 1019.57 1019.60 1019.55 1019.41 1019.23 1019.02 1018.81 1018.62 1018.44 1018.29 1018.14 1017.97 1017.79
1019.49 1019.59 1019.71 1019.84 1019.97 1020.08 1020.12 1020.07 1019.88 1019.53 1019.02 1018.34 1017.56 1016.72 1015.88 1015.14 1014.54 1014.13 1013.94 1013.96 1014.17 1014.53 1015.01 1015.57 1016.16 1016.76 1017.33 1017.87 1018.35 1018.76 1019.09 1019.32 1019.44 1019.47 1019.40 1019.26 1019.08 1018.87 1018.66 1018.47 1018.30 1018.16 1018.03 1017.89
1019.99 1020.08 1020.18 1020.29 1020.38 1020.44 1020.42 1020.28 1020.00 1019.53 1018.89 1018.09 1017.17 1016.21 1015.28 1014.46 1013.82 1013.40 1013.22 1013.27 1013.52 1013.93 1014.45 1015.03 1015.63 1016.23 1016.81 1017.36 1017.87 1018.32 1018.70 1019.01 1019.22 1019.32 1019.32 1019.24 1019.08 1018.88 1018.66 1018.46 1018.29 1018.16 1018.05 1017.96
1020.38 1020.46 1020.56 1020.64 1020.71 1020.73 1020.67 1020.46 1020.09 1019.52 1018.77 1017.85 1016.83 1015.77 1014.78 1013.93 1013.28 1012.88 1012.75 1012.85 1013.15 1013.60 1014.13 1014.71 1015.29 1015.86 1016.40 1016.92 1017.41 1017.87 1018.29 1018.65 1018.92 1019.10 1019.17 1019.14 1019.02 1018.84 1018.63 1018.43 1018.26 1018.13 1018.05 1018.00
1020.68 1020.75 1020.84 1020.92 1020.98 1020.98 1020.87 1020.62 1020.17 1019.53 1018.68 1017.68 1016.58 1015.47 1014.44 1013.58 1012.95 1012.60 1012.52 1012.67 1013.02 1013.50 1014.03 1014.59 1015.12 1015.62 1016.09 1016.54 1016.98 1017.42 1017.84 1018.23 1018.55 1018.80 1018.93 1018.96 1018.89 1018.75 1018.56 1018.37 1018.21 1018.09 1018.03 1018.01
1020.92 1020.98 1021.06 1021.13 1021.19 1021.18 1021.05 1020.76 1020.28 1019.58 1018.67 1017.61 1016.46 1015.32 1014.28 1013.44 1012.84 1012.53 1012.50 1012.70 1013.08 1013.56 1014.08 1014.58 1015.04 1015.46 1015.83 1016.20 1016.56 1016.95 1017.35 1017.74 1018.10 1018.40 1018.60 1018.69 1018.68 1018.58 1018.43 1018.27 1018.12 1018.02 1017.97 1017.98
1021.13 1021.17 1021.24 1021.32 1021.37 1021.36 1021.24 1020.94 1020.43 1019.70 1018.77 1017.68 1016.51 1015.36 1014.32 1013.50 1012.93 1012.65 1012.64 1012.86 1013.24 1013.70 1014.18 1014.61 1014.98 1015.29 1015.56 1015.83 1016.11 1016.43 1016.80 1017.19 1017.56 1017.90 1018.16 1018.31 1018.36 1018.32 1018.22 1018.10 1017.99 1017.91 1017.88 1017.90
1021.32 1021.35 1021.41 1021.49 1021.55 1021.55 1021.43 1021.14 1020.64 1019.91 1018.97 1017.88 1016.72 1015.57 1014.54 1013.72 1013.17 1012.89 1012.88 1013.08 1013.42 1013.83 1014.23 1014.58 1014.86 1015.07 1015.23 1015.40 1015.60 1015.86 1016.18 1016.55 1016.94 1017.30 1017.60 1017.82 1017.93 1017.96 1017.92 1017.85 1017.79 1017.75 1017.75 1017.79
1021.49 1021.50 1021.56 1021.64 1021.71 1021.73 1021.62 1021.35 1020.86 1020.15 1019.24 1018.17 1017.03 1015.90 1014.88 1014.06 1013.49 1013.19 1013.13 1013.28 1013.55 1013.88 1014.19 1014.44 1014.62 1014.73 1014.81 1014.89 1015.02 1015.22 1015.50 1015.85 1016.23 1016.61 1016.95 1017.21 1017.39 1017.49 1017.52 1017.52 1017.52 1017.53 1017.57 1017.63
1021.62 1021.62 1021.67 1021.75 1021.83 1021.85 1021.76 1021.51 1021.05 1020.37 1019.49 1018.46 1017.35 1016.24 1015.24 1014.41 1013.82 1013.47 1013.35 1013.40 1013.58 1013.80 1014.01 1014.17 1014.26 1014.29 1014.29 1014.31 1014.39 1014.54 1014.78 1015.10 1015.48 1015.86 1016.22 1016.52 1016.76 1016.92 1017.03 1017.11 1017.17 1017.24 1017.33 1017.42
1021.68 1021.67 1021.71 1021.78 1021.85 1021.86 1021.78 1021.53 1021.09 1020.45 1019.62 1018.64 1017.57 1016.51 1015.53 1014.70 1014.08 1013.68 1013.47 1013.44 1013.51 1013.62 1013.73 1013.80 1013.81 1013.78 1013.73 1013.71 1013.74 1013.86 1014.07 1014.37 1014.72 1015.10 1015.47 1015.80 1016.08 1016.30 1016.47 1016.62 1016.76 1016.90 1017.04 1017.18
1021.65 1021.62 1021.65 1021.69 1021.73 1021.72 1021.61 1021.35 1020.92 1020.31 1019.52 1018.60 1017.60 1016.59 1015.65 1014.85 1014.22 1013.77 1013.50 1013.38 1013.35 1013.37 1013.39 1013.37 1013.32 1013.25 1013.17 1013.12 1013.14 1013.23 1013.42 1013.69 1014.02 1014.38 1014.74 1015.08 1015.38 1015.64 1015.88 1016.09 1016.30 1016.50 1016.70 1016.88
1021.53 1021.48 1021.47 1021.47 1021.45 1021.38 1021.22 1020.93 1020.48 1019.88 1019.13 1018.28 1017.36 1016.43 1015.56 1014.81 1014.20 1013.74 1013.44 1013.25 1013.15 1013.09 1013.03 1012.96 1012.87 1012.77 1012.67 1012.61 1012.62 1012.70 1012.86 1013.10 1013.40 1013.73 1014.07 1014.40 1014.71 1015.00 1015.27 1015.53 1015.79 1016.05 1016.30 1016.53
1021.34 1021.26 1021.20 1021.12 1021.01 1020.85 1020.60 1020.25 1019.77 1019.17 1018.46 1017.67 1016.84 1016.02 1015.25 1014.58 1014.03 1013.60 1013.29 1013.08 1012.94 1012.82 1012.72 1012.61 1012.49 1012.37 1012.27 1012.20 1012.20 1012.26 1012.41 1012.62 1012.88 1013.17 1013.48 1013.78 1014.08 1014.37 1014.66 1014.95 1015.24 1015.54 1015.83 1016.09
1021.11 1020.99 1020.85 1020.68 1020.45 1020.17 1019.82 1019.37 1018.84 1018.23 1017.55 1016.83 1016.10 1015.40 1014.76 1014.20 1013.74 1013.38 1013.11 1012.91 1012.74 1012.61 1012.47 1012.33 1012.19 1012.06 1011.95 1011.88 1011.87 1011.92 1012.04 1012.22 1012.44 1012.69 1012.96 1013.23 1013.50 1013.77 1014.05 1014.34 1014.65 1014.96 1015.27 1015.57
1020.86 1020.68 1020.45 1020.17 1019.82 1019.41 1018.93 1018.39 1017.80 1017.16 1016.51 1015.86 1015.24 1014.67 1014.17 1013.74 1013.40 1013.13 1012.91 1012.74 1012.58 1012.44 1012.28 1012.12 1011.96 1011.81 1011.69 1011.62 1011.59 1011.63 1011.72 1011.87 1012.05 1012.25 1012.48 1012.70 1012.94 1013.18 1013.44 1013.71 1014.01 1014.32 1014.63 1014.94
1020.60 1020.35 1020.03 1019.63 1019.16 1018.62 1018.03 1017.40 1016.75 1016.10 1015.48 1014.90 1014.39 1013.94 1013.57 1013.28 1013.05 1012.87 1012.72 1012.58 1012.44 1012.28 1012.11 1011.93 1011.75 1011.58 1011.44 1011.34 1011.30 1011.32 1011.39 1011.50 1011.64 1011.81 1011.99 1012.18 1012.37 1012.58 1012.80 1013.04 1013.32 1013.61 1013.91 1014.22
1020.30 1019.98 1019.57 1019.08 1018.50 1017.87 1017.19 1016.49 1015.81 1015.16 1014.58 1014.07 1013.64 1013.31 1013.05 1012.87 1012.73 1012.62 1012.52 1012.40 1012.26 1012.09 1011.90 1011.68 1011.47 1011.28 1011.11 1011.00 1010.94 1010.93 1010.98 1011.07 1011.18 1011.32 1011.46 1011.61 1011.77 1011.94 1012.12 1012.34 1012.58 1012.85 1013.14 1013.44
1019.92 1019.53 1019.05 1018.49 1017.85 1017.16 1016.44 1015.72 1015.04 1014.41 1013.87 1013.42 1013.08 1012.82 1012.64 1012.53 1012.44 1012.37 1012.28 1012.16 1012.00 1011.80 1011.56 1011.32 1011.07 1010.85 1010.66 1010.53 1010.45 1010.43 1010.46 1010.53 1010.62 1010.74 1010.86 1010.98 1011.11 1011.25 1011.41 1011.60 1011.82 1012.07 1012.35 1012.64
1019.41 1018.96 1018.44 1017.85 1017.19 1016.49 1015.78 1015.09 1014.44 1013.86 1013.37 1012.98 1012.68 1012.47 1012.33 1012.23 1012.15 1012.06 1011.94 1011.78 1011.58 1011.33 1011.05 1010.77 1010.49 1010.24 1010.04 1009.90 1009.82 1009.79 1009.82 1009.88 1009.97 1010.07 1010.18 1010.29 1010.40 1010.53 1010.68 1010.86 1011.07 1011.31 1011.58 1011.88
1018.73 1018.25 1017.71 1017.11 1016.48 1015.83 1015.18 1014.55 1013.97 1013.46 1013.03 1012.68 1012.41 1012.21 1012.05 1011.92 1011.79 1011.64 1011.45 1011.22 1010.95 1010.64 1010.32 1010.00 1009.71 1009.45 1009.25 1009.12 1009.04 1009.03 1009.06 1009.13 1009.22 1009.33 1009.44 1009.55 1009.67 1009.80 1009.95 1010.13 1010.35 1010.59 1010.88 1011.18
1017.89 1017.38 1016.84 1016.28 1015.70 1015.13 1014.57 1014.04 1013.56 1013.12 1012.75 1012.43 1012.16 1011.93 1011.72 1011.51 1011.28 1011.03 1010.75 1010.43 1010.08 1009.72 1009.36 1009.03 1008.73 1008.49 1008.32 1008.21 1008.16 1008.18 1008.24 1008.32 1008.44 1008.55 1008.68 1008.80 1008.93 1009.08 1009.25 1009.45 1009.68 1009.95 1010.25 1010.58
1016.92 1016.39 1015.87 1015.35 1014.86 1014.38 1013.94 1013.52 1013.13 1012.77 1012.44 1012.14 1011.84 1011.55 1011.25 1010.93 1010.59 1010.21 1009.82 1009.40 1008.99 1008.58 1008.20 1007.88 1007.61 1007.41 1007.28 1007.22 1007.23 1007.29 1007.39 1007.51 1007.64 1007.78 1007.92 1008.07 1008.22 1008.39 1008.59 1008.82 1009.08 1009.38 1009.72 1010.08
1015.92 1015.37 1014.87 1014.40 1013.99 1013.61 1013.27 1012.95 1012.65 1012.36 1012.05 1011.74 1011.39 1011.02 1010.61 1010.17 1009.69 1009.20 1008.69 1008.19 1007.72 1007.29 1006.92 1006.62 1006.41 1006.27 1006.22 1006.23 1006.30 1006.42 1006.56 1006.72 1006.88 1007.04 1007.20 1007.37 1007.55 1007.75 1007.98 1008.24 1008.54 1008.88 1009.25 1009.64
1014.98 1014.42 1013.93 1013.51 1013.16 1012.86 1012.60 1012.36 1012.12 1011.85 1011.56 1011.21 1010.80 1010.33 1009.81 1009.25 1008.65 1008.04 1007.45 1006.89 1006.38 1005.95 1005.61 1005.37 1005.23 1005.18 1005.20 1005.30 1005.44 1005.61 1005.80 1005.99 1006.17 1006.36 1006.54 1006.73 1006.93 1007.15 1007.41 1007.71 1008.04 1008.42 1008.81 1009.23
Thickness
5571 5572 5568 5566 5566 5568 5569 5569 5573 5574 5575 5576 5584 5590 5598 5602 5602 5605 5608 5610 5611 5612 5613 5611 5611 5610 5610 5610 5612 5613 5614 5616 5617 5619 5622 5625 5626 5628 5629 5630 5632 5634 5636 5638
5573 5566 5561 5562 5563 5564 5565 5567 5570 5571 5570 5572 5580 5588 5598 5600 5601 5603 5605 5606 5607 5607 5607 5605 5604 5603 5603 5603 5604 5605 5606 5608 5609 5610 5613 5615 5617 5619 5621 5622 5624 5626 5628 5630
5569 5562 5560 5561 5562 5563 5563 5564 5564 5563 5566 5570 5573 5591 5597 5599 5598 5599 5600 5602 5603 5602 5602 5601 5599 5598 5598 5597 5597 5597 5598 5599 5600 5602 5603 5605 5608 5611 5613 5614 5616 5618 5620 5621
5564 5560 5559 5560 5560 5560 5562 5558 5557 5558 5563 5569 5567 5579 5598 5597 5595 5597 5599 5599 5599 5598 5597 5596 5594 5593 5592 5590 5589 5589 5590 5591 5592 5593 5595 5598 5601 5604 5606 5607 5608 5610 5611 5613
5562 5557 5558 5559 5556 5555 5557 5554 5554 5556 5558 5561 5566 5566 5593 5590 5592 5597 5598 5597 5595 5594 5592 5590 5589 5587 5585 5584 5582 5582 5583 5584 5585 5586 5588 5590 5593 5596 5598 5599 5601 5602 5604 5605
5559 5554 5554 5555 5553 5552 5552 5553 5555 5554 5557 5562 5567 5566 5588 5594 5593 5594 5593 5592 5590 5588 5586 5585 5583 5581 5579 5578 5576 5576 5577 5578 5578 5579 5581 5583 5585 5588 5590 5591 5593 5595 5596 5598
5561 5556 5552 5551 5554 5553 5553 5555 5560 5563 5564 5572 5560 5561 5582 5592 5588 5586 5586 5586 5585 5583 5581 5580 5578 5576 5574 5573 5572 5571 5572 5573 5573 5574 5575 5576 5578 5580 5582 5584 5586 5588 5589 5590
5557 5559 5552 5549 5550 5550 5549 5551 5554 5561 5568 5574 5560 5567 5588 5587 5582 5580 5579 5579 5578 5578 5577 5575 5573 5572 5570 5569 5567 5567 5567 5568 5568 5569 5569 5570 5571 5572 5575 5577 5578 5580 5582 5583
5552 5554 5548 5544 5543 5545 5547 5547 5544 5545 5544 5551 5573 5577 5584 5582 5580 5578 5577 5576 5575 5574 5571 5570 5569 5567 5566 5565 5563 5563 5562 5562 5562 5563 5563 5564 5565 5566 5568 5569 5571 5572 5573 5575
5543 5543 5546 5541 5539 5538 5541 5541 5538 5539 5546 5561 5577 5577 5583 5581 5579 5576 5574 5573 5572 5570 5568 5566 5565 5564 5562 5560 5559 5557 5557 5557 5557 5557 5557 5558 5559 5560 5560 5562 5564 5565 5566 5567
5537 5537 5543 5540 5540 5543 5535 5532 5534 5536 5538 5547 5562 5581 5583 5577 5574 5571 5570 5568 5567 5566 5564 5563 5561 5560 5557 5556 5554 5553 5552 5552 5552 5551 5552 5552 5553 5553 5554 5555 5557 5558 5558 5559
5531 5531 5538 5543 5537 5531 5534 5535 5532 5533 5534 5533 5542 5568 5576 5570 5565 5562 5563 5562 5562 5561 5560 5559 5558 5556 5554 5552 5551 5549 5548 5548 5547 5547 5547 5547 5547 5547 5548 5549 5549 5550 5551 5551
5524 5524 5533 5546 5536 5526 5526 5527 5526 5525 5524 5527 5534 5564 5565 5560 5558 5557 5557 5557 5557 5556 5555 5555 5554 5552 5551 5549 5548 5546 5545 5544 5543 5542 5542 5542 5543 5542 5542 5543 5542 5542 5543 5543
5521 5521 5525 5539 5542 5532 5527 5525 5521 5516 5518 5529 5540 5558 5564 5558 5555 5554 5553 5552 5551 5551 5550 5550 5549 5549 5548 5546 5545 5543 5542 5540 5539 5537 5537 5538 5538 5537 5537 5536 5535 5535 5535 5535
5514 5516 5518 5522 5523 5520 5522 5524 5521 5517 5523 5525 5544 5547 5555 5552 5548 5547 5546 5545 5544 5545 5545 5545 5544 5545 5544 5543 5541 5539 5538 5537 5535 5533 5533 5534 5533 5531 5530 5529 5528 5528 5527 5528
5507 5506 5505 5511 5515 5514 5516 5525 5524 5523 5524 5526 5530 5538 5547 5543 5540 5540 5541 5539 5539 5539 5540 5540 5540 5540 5540 5539 5537 5535 5534 5532 5530 5530 5530 5529 5527 5525 5524 5523 5522 5521 5521 5521
5498 5497 5495 5509 5510 5508 5523 5538 5532 5527 5527 5524 5526 5537 5539 5535 5534 5535 5534 5533 5534 5534 5535 5535 5536 5536 5536 5535 5533 5532 5530 5528 5526 5526 5525 5524 5522 5521 5519 5517 5516 5516 5515 5515
5491 5487 5486 5494 5499 5503 5542 5533 5529 5525 5526 5524 5525 5529 5529 5528 5528 5527 5527 5527 5529 5530 5531 5531 5530 5530 5530 5529 5528 5527 5525 5524 5522 5522 5521 5519 5517 5516 5514 5513 5512 5510 5510 5509
5486 5481 5480 5483 5494 5514 5531 5526 5517 5516 5523 5523 5518 5520 5519 5517 5517 5525 5524 5522 5523 5523 5524 5525 5525 5524 5524 5523 5522 5520 5520 5518 5518 5518 5517 5515 5513 5511 5510 5508 5507 5506 5504 5504
5470 5472 5472 5474 5476 5498 5528 5513 5505 5506 5515 5517 5509 5508 5507 5504 5511 5522 5519 5515 5516 5516 5517 5517 5518 5518 5518 5518 5516 5515 5515 5514 5515 5515 5513 5511 5508 5507 5506 5505 5503 5500 5499 5498
5458 5456 5460 5466 5470 5499 5512 5499 5493 5500 5511 5506 5501 5499 5497 5496 5502 5507 5508 5508 5508 5509 5509 5509 5510 5511 5512 5512 5510 5510 5510 5511 5511 5509 5507 5505 5503 5502 5501 5499 5497 5495 5493 5492
5468 5463 5460 5464 5463 5488 5501 5488 5490 5501 5499 5495 5493 5491 5490 5491 5493 5495 5497 5500 5501 5503 5503 5503 5503 5506 5506 5504 5502 5504 5506 5506 5503 5502 5500 5500 5498 5497 5495 5493 5491 5489 5488 5486
5467 5475 5476 5474 5487 5496 5487 5487 5487 5484 5484 5485 5484 5484 5482 5482 5485 5488 5490 5493 5495 5496 5497 5496 5496 5499 5500 5498 5497 5499 5501 5499 5497 5496 5495 5494 5492 5491 5489 5487 5485 5483 5482 5481
5462 5459 5459 5463 5478 5481 5478 5476 5474 5472 5472 5474 5474 5474 5473 5474 5477 5480 5483 5486 5487 5489 5489 5489 5489 5491 5494 5493 5492 5493 5494 5492 5491 5490 5490 5488 5486 5485 5483 5481 5479 5478 5477 5475
5459 5447 5446 5455 5467 5466 5471 5467 5466 5465 5464 5463 5465 5464 5464 5466 5469 5471 5474 5477 5480 5481 5481 5481 5481 5484 5486 5486 5486 5486 5485 5485 5484 5484 5483 5482 5480 5479 5477 5475 5474 5473 5472 5471
5451 5445 5443 5455 5461 5454 5460 5459 5455 5454 5455 5456 5456 5458 5459 5458 5460 5462 5465 5467 5469 5471 5472 5472 5473 5474 5477 5478 5479 5479 5478 5477 5478 5477 5477 5476 5474 5472 5470 5469 5466 5463 5462 5461